Saint Bonnet de Bellac- Haute Vienne - France
Donnes mto: samedi, 17/12/2011
Date Horaire Temp. E. Hum. E. P.atmo. Pluie Vent Direction Direction Ensoleilleme Solaire P. de rose Temp au vent Rafales
17/12/2011 00:00 1,2 C 93 % 1007,3 hPa 0,0 mm 0,0 km/h (0 Bft) SO 225 0 min 0 W/m 0,2 C 1,2 C 0,0 km/h (0 Bft)
17/12/2011 00:05 1,3 C 94 % 1007,3 hPa 0,0 mm 3,2 km/h (1 Bft) O-SO 247 0 min 0 W/m 0,4 C 1,3 C 4,3 km/h (1 Bft)
17/12/2011 00:10 1,3 C 94 % 1007,5 hPa 0,0 mm 3,2 km/h (1 Bft) N 360 0 min 0 W/m 0,4 C 1,3 C 3,2 km/h (1 Bft)
17/12/2011 00:15 1,4 C 94 % 1007,6 hPa 0,0 mm 2,2 km/h (1 Bft) SO 225 0 min 0 W/m 0,5 C 1,4 C 4,3 km/h (1 Bft)
17/12/2011 00:20 1,4 C 94 % 1007,5 hPa 0,0 mm 3,6 km/h (1 Bft) SO 225 0 min 0 W/m 0,5 C 1,4 C 6,8 km/h (2 Bft)
17/12/2011 00:25 1,6 C 94 % 1007,4 hPa 0,0 mm 5,8 km/h (2 Bft) O-SO 247 0 min 0 W/m 0,7 C -0,1 C 7,6 km/h (2 Bft)
17/12/2011 00:30 1,7 C 94 % 1007,4 hPa 0,0 mm 5,8 km/h (2 Bft) S-SO 202 0 min 0 W/m 0,8 C 0,0 C 6,8 km/h (2 Bft)
17/12/2011 00:35 1,8 C 94 % 1007,5 hPa 0,0 mm 2,2 km/h (1 Bft) O-SO 247 0 min 0 W/m 0,9 C 1,8 C 3,2 km/h (1 Bft)
17/12/2011 00:40 1,8 C 94 % 1007,5 hPa 0,0 mm 3,6 km/h (1 Bft) O 270 0 min 0 W/m 0,9 C 1,8 C 3,6 km/h (1 Bft)
17/12/2011 00:45 1,8 C 94 % 1007,5 hPa 0,0 mm 2,5 km/h (1 Bft) O-SO 247 0 min 0 W/m 0,9 C 1,8 C 6,5 km/h (2 Bft)
17/12/2011 00:50 1,8 C 94 % 1007,4 hPa 0,0 mm 1,1 km/h (1 Bft) O-SO 247 0 min 0 W/m 0,9 C 1,8 C 7,6 km/h (2 Bft)
17/12/2011 00:55 1,7 C 94 % 1007,4 hPa 0,0 mm 1,4 km/h (1 Bft) SO 225 0 min 0 W/m 0,8 C 1,7 C 4,3 km/h (1 Bft)
17/12/2011 01:00 1,6 C 94 % 1007,4 hPa 0,0 mm 3,2 km/h (1 Bft) O-SO 247 0 min 0 W/m 0,7 C 1,6 C 4,3 km/h (1 Bft)
17/12/2011 01:05 1,6 C 94 % 1007,4 hPa 0,0 mm 2,2 km/h (1 Bft) O-SO 247 0 min 0 W/m 0,7 C 1,6 C 2,9 km/h (1 Bft)
17/12/2011 01:10 1,6 C 94 % 1007,4 hPa 0,0 mm 5,8 km/h (2 Bft) S-SO 202 0 min 0 W/m 0,7 C -0,1 C 13,0 km/h (3 Bft)
17/12/2011 01:15 1,6 C 95 % 1007,3 hPa 0,0 mm 2,2 km/h (1 Bft) O-SO 247 0 min 0 W/m 0,9 C 1,6 C 7,9 km/h (2 Bft)
17/12/2011 01:20 1,7 C 95 % 1007,3 hPa 0,0 mm 4,0 km/h (1 Bft) O-SO 247 0 min 0 W/m 1,0 C 1,7 C 9,0 km/h (2 Bft)
17/12/2011 01:25 1,8 C 95 % 1007,3 hPa 0,1 mm 3,2 km/h (1 Bft) S 180 0 min 0 W/m 1,1 C 1,8 C 4,0 km/h (1 Bft)
17/12/2011 01:30 1,8 C 95 % 1007,4 hPa 0,0 mm 2,5 km/h (1 Bft) SO 225 0 min 0 W/m 1,1 C 1,8 C 10,8 km/h (2 Bft)
17/12/2011 01:35 1,8 C 95 % 1007,5 hPa 0,0 mm 1,4 km/h (1 Bft) O-SO 247 0 min 0 W/m 1,1 C 1,8 C 3,6 km/h (1 Bft)
17/12/2011 01:40 1,9 C 95 % 1007,6 hPa 0,0 mm 2,2 km/h (1 Bft) SO 225 0 min 0 W/m 1,2 C 1,9 C 6,1 km/h (2 Bft)
17/12/2011 01:45 1,9 C 95 % 1007,6 hPa 0,0 mm 1,4 km/h (1 Bft) SO 225 0 min 0 W/m 1,2 C 1,9 C 3,6 km/h (1 Bft)
17/12/2011 01:50 1,9 C 95 % 1007,5 hPa 0,0 mm 3,2 km/h (1 Bft) SO 225 0 min 0 W/m 1,2 C 1,9 C 8,6 km/h (2 Bft)
17/12/2011 01:55 1,9 C 95 % 1007,4 hPa 0,0 mm 3,6 km/h (1 Bft) S 180 0 min 0 W/m 1,2 C 1,9 C 7,2 km/h (2 Bft)
17/12/2011 02:02 2,0 C 95 % 1007,3 hPa 0,0 mm 3,2 km/h (1 Bft) SO 225 0 min 0 W/m 1,3 C 2,0 C 3,2 km/h (1 Bft)
17/12/2011 02:05 2,0 C 95 % 1007,3 hPa 0,0 mm 3,6 km/h (1 Bft) S-SO 202 0 min 0 W/m 1,3 C 2,0 C 4,7 km/h (1 Bft)
17/12/2011 02:10 2,0 C 95 % 1007,4 hPa 0,0 mm 2,9 km/h (1 Bft) O-SO 247 0 min 0 W/m 1,3 C 2,0 C 8,6 km/h (2 Bft)
17/12/2011 02:15 2,1 C 95 % 1007,4 hPa 0,0 mm 1,4 km/h (1 Bft) SO 225 0 min 0 W/m 1,4 C 2,1 C 1,4 km/h (1 Bft)
17/12/2011 02:20 2,2 C 95 % 1007,3 hPa 0,0 mm 5,4 km/h (2 Bft) SO 225 0 min 0 W/m 1,5 C 0,7 C 7,2 km/h (2 Bft)
17/12/2011 02:25 2,3 C 95 % 1007,4 hPa 0,0 mm 1,1 km/h (1 Bft) O-SO 247 0 min 0 W/m 1,6 C 2,3 C 1,1 km/h (1 Bft)
17/12/2011 02:30 2,3 C 95 % 1007,5 hPa 0,0 mm 4,0 km/h (1 Bft) O-SO 247 0 min 0 W/m 1,6 C 2,3 C 4,3 km/h (1 Bft)
17/12/2011 02:35 2,4 C 95 % 1007,5 hPa 0,0 mm 0,7 km/h (0 Bft) SO 225 0 min 0 W/m 1,7 C 2,4 C 3,2 km/h (1 Bft)
17/12/2011 02:40 2,5 C 95 % 1007,6 hPa 0,0 mm 8,6 km/h (2 Bft) S-SO 202 0 min 0 W/m 1,8 C 0,0 C 12,6 km/h (3 Bft)
17/12/2011 02:45 2,6 C 95 % 1007,6 hPa 0,0 mm 3,2 km/h (1 Bft) O-SO 247 0 min 0 W/m 1,9 C 2,6 C 4,0 km/h (1 Bft)
17/12/2011 02:50 2,6 C 94 % 1007,6 hPa 0,0 mm 2,5 km/h (1 Bft) SO 225 0 min 0 W/m 1,7 C 2,6 C 6,1 km/h (2 Bft)
17/12/2011 02:55 2,8 C 94 % 1007,5 hPa 0,0 mm 7,6 km/h (2 Bft) SO 225 0 min 0 W/m 1,9 C 0,7 C 8,3 km/h (2 Bft)
17/12/2011 03:00 2,8 C 94 % 1007,6 hPa 0,0 mm 8,3 km/h (2 Bft) S-SO 202 0 min 0 W/m 1,9 C 0,5 C 10,1 km/h (2 Bft)
17/12/2011 03:05 2,8 C 94 % 1007,6 hPa 0,0 mm 4,7 km/h (1 Bft) O-SO 247 0 min 0 W/m 1,9 C 1,7 C 4,7 km/h (1 Bft)
17/12/2011 03:10 2,7 C 94 % 1007,6 hPa 0,0 mm 2,5 km/h (1 Bft) SO 225 0 min 0 W/m 1,8 C 2,7 C 7,6 km/h (2 Bft)
17/12/2011 03:15 2,6 C 94 % 1007,5 hPa 0,0 mm 3,6 km/h (1 Bft) O-SO 247 0 min 0 W/m 1,7 C 2,6 C 3,6 km/h (1 Bft)
17/12/2011 03:20 2,6 C 94 % 1007,7 hPa 0,0 mm 6,8 km/h (2 Bft) S-SO 202 0 min 0 W/m 1,7 C 0,7 C 7,2 km/h (2 Bft)
17/12/2011 03:25 2,5 C 94 % 1007,8 hPa 0,0 mm 4,7 km/h (1 Bft) O-SO 247 0 min 0 W/m 1,6 C 1,4 C 7,2 km/h (2 Bft)
17/12/2011 03:30 2,4 C 94 % 1007,8 hPa 0,0 mm 4,3 km/h (1 Bft) S-SO 202 0 min 0 W/m 1,5 C 2,4 C 4,3 km/h (1 Bft)
17/12/2011 03:35 2,3 C 94 % 1007,8 hPa 0,0 mm 5,0 km/h (1 Bft) SO 225 0 min 0 W/m 1,4 C 1,0 C 8,3 km/h (2 Bft)
17/12/2011 03:40 2,3 C 94 % 1007,9 hPa 0,0 mm 6,8 km/h (2 Bft) SO 225 0 min 0 W/m 1,4 C 0,3 C 9,0 km/h (2 Bft)
17/12/2011 03:45 2,3 C 94 % 1007,8 hPa 0,0 mm 1,8 km/h (1 Bft) O 270 0 min 0 W/m 1,4 C 2,3 C 7,6 km/h (2 Bft)
17/12/2011 03:50 2,3 C 94 % 1007,8 hPa 0,0 mm 1,4 km/h (1 Bft) O-SO 247 0 min 0 W/m 1,4 C 2,3 C 2,9 km/h (1 Bft)
17/12/2011 03:55 2,2 C 94 % 1007,8 hPa 0,0 mm 1,1 km/h (1 Bft) O-SO 247 0 min 0 W/m 1,3 C 2,2 C 4,0 km/h (1 Bft)
17/12/2011 04:00 2,1 C 94 % 1007,8 hPa 0,0 mm 2,9 km/h (1 Bft) O-NO 292 0 min 0 W/m 1,2 C 2,1 C 7,6 km/h (2 Bft)
17/12/2011 04:05 2,1 C 94 % 1007,8 hPa 0,0 mm 2,2 km/h (1 Bft) SO 225 0 min 0 W/m 1,2 C 2,1 C 4,3 km/h (1 Bft)
17/12/2011 04:10 2,0 C 94 % 1007,7 hPa 0,0 mm 0,0 km/h (0 Bft) SO 225 0 min 0 W/m 1,1 C 2,0 C 0,0 km/h (0 Bft)
17/12/2011 04:15 1,9 C 94 % 1007,6 hPa 0,0 mm 1,1 km/h (1 Bft) SO 225 0 min 0 W/m 1,0 C 1,9 C 3,6 km/h (1 Bft)
17/12/2011 04:20 1,9 C 94 % 1007,7 hPa 0,0 mm 1,8 km/h (1 Bft) O 270 0 min 0 W/m 1,0 C 1,9 C 8,6 km/h (2 Bft)
17/12/2011 04:25 1,9 C 94 % 1007,7 hPa 0,0 mm 1,8 km/h (1 Bft) SO 225 0 min 0 W/m 1,0 C 1,9 C 4,3 km/h (1 Bft)
17/12/2011 04:30 1,9 C 94 % 1007,6 hPa 0,0 mm 1,1 km/h (1 Bft) O-SO 247 0 min 0 W/m 1,0 C 1,9 C 1,1 km/h (1 Bft)
17/12/2011 04:35 1,9 C 94 % 1007,6 hPa 0,0 mm 0,7 km/h (0 Bft) O 270 0 min 0 W/m 1,0 C 1,9 C 3,6 km/h (1 Bft)
17/12/2011 04:40 1,9 C 94 % 1007,7 hPa 0,0 mm 0,4 km/h (0 Bft) O-NO 292 0 min 0 W/m 1,0 C 1,9 C 6,5 km/h (2 Bft)
17/12/2011 04:45 1,9 C 94 % 1007,7 hPa 0,0 mm 2,5 km/h (1 Bft) SO 225 0 min 0 W/m 1,0 C 1,9 C 7,2 km/h (2 Bft)
17/12/2011 04:50 2,0 C 94 % 1007,6 hPa 0,0 mm 2,5 km/h (1 Bft) O-SO 247 0 min 0 W/m 1,1 C 2,0 C 3,2 km/h (1 Bft)
17/12/2011 04:55 2,0 C 94 % 1007,7 hPa 0,0 mm 1,4 km/h (1 Bft) SO 225 0 min 0 W/m 1,1 C 2,0 C 6,5 km/h (2 Bft)
17/12/2011 05:00 2,0 C 94 % 1008,0 hPa 0,0 mm 0,7 km/h (0 Bft) SO 225 0 min 0 W/m 1,1 C 2,0 C 0,7 km/h (0 Bft)
17/12/2011 05:05 2,0 C 94 % 1008,0 hPa 0,0 mm 0,7 km/h (0 Bft) O-SO 247 0 min 0 W/m 1,1 C 2,0 C 4,3 km/h (1 Bft)
17/12/2011 05:10 1,9 C 94 % 1008,0 hPa 0,0 mm 1,1 km/h (1 Bft) SO 225 0 min 0 W/m 1,0 C 1,9 C 4,0 km/h (1 Bft)
17/12/2011 05:15 2,0 C 94 % 1008,1 hPa 0,0 mm 1,8 km/h (1 Bft) O-SO 247 0 min 0 W/m 1,1 C 2,0 C 4,7 km/h (1 Bft)
17/12/2011 05:20 2,0 C 94 % 1008,1 hPa 0,0 mm 0,7 km/h (0 Bft) O-SO 247 0 min 0 W/m 1,1 C 2,0 C 2,9 km/h (1 Bft)
17/12/2011 05:25 2,1 C 94 % 1008,2 hPa 0,0 mm 1,1 km/h (1 Bft) SO 225 0 min 0 W/m 1,2 C 2,1 C 4,0 km/h (1 Bft)
17/12/2011 05:30 2,1 C 94 % 1008,3 hPa 0,0 mm 0,4 km/h (0 Bft) SO 225 0 min 0 W/m 1,2 C 2,1 C 0,4 km/h (0 Bft)
17/12/2011 05:35 2,3 C 94 % 1008,2 hPa 0,0 mm 1,1 km/h (1 Bft) SO 225 0 min 0 W/m 1,4 C 2,3 C 4,3 km/h (1 Bft)
17/12/2011 05:40 2,4 C 95 % 1008,4 hPa 0,0 mm 0,4 km/h (0 Bft) SO 225 0 min 0 W/m 1,7 C 2,4 C 4,0 km/h (1 Bft)
17/12/2011 05:45 2,5 C 95 % 1008,4 hPa 0,0 mm 7,6 km/h (2 Bft) O-SO 247 0 min 0 W/m 1,8 C 0,3 C 14,4 km/h (3 Bft)
17/12/2011 05:50 2,6 C 95 % 1008,6 hPa 0,0 mm 3,6 km/h (1 Bft) SO 225 0 min 0 W/m 1,9 C 2,6 C 3,6 km/h (1 Bft)
17/12/2011 05:55 2,8 C 95 % 1008,6 hPa 0,0 mm 1,4 km/h (1 Bft) S-SO 202 0 min 0 W/m 2,1 C 2,8 C 4,3 km/h (1 Bft)
17/12/2011 06:00 2,8 C 95 % 1008,8 hPa 0,0 mm 3,2 km/h (1 Bft) O-SO 247 0 min 0 W/m 2,1 C 2,8 C 7,9 km/h (2 Bft)
17/12/2011 06:05 2,9 C 94 % 1008,9 hPa 0,0 mm 1,4 km/h (1 Bft) SO 225 0 min 0 W/m 2,0 C 2,9 C 4,0 km/h (1 Bft)
17/12/2011 06:10 2,9 C 94 % 1009,0 hPa 0,0 mm 0,4 km/h (0 Bft) O-SO 247 0 min 0 W/m 2,0 C 2,9 C 6,5 km/h (2 Bft)
17/12/2011 06:15 3,0 C 94 % 1009,0 hPa 0,0 mm 1,4 km/h (1 Bft) SO 225 0 min 0 W/m 2,1 C 3,0 C 2,9 km/h (1 Bft)
17/12/2011 06:20 3,1 C 94 % 1009,1 hPa 0,0 mm 2,5 km/h (1 Bft) SO 225 0 min 0 W/m 2,2 C 3,1 C 4,3 km/h (1 Bft)
17/12/2011 06:25 3,1 C 94 % 1009,1 hPa 0,0 mm 0,4 km/h (0 Bft) O-SO 247 0 min 0 W/m 2,2 C 3,1 C 0,4 km/h (0 Bft)
17/12/2011 06:30 3,1 C 94 % 1009,2 hPa 0,0 mm 0,4 km/h (0 Bft) O-SO 247 0 min 0 W/m 2,2 C 3,1 C 4,0 km/h (1 Bft)
17/12/2011 06:35 3,2 C 94 % 1009,2 hPa 0,0 mm 0,4 km/h (0 Bft) O-SO 247 0 min 0 W/m 2,3 C 3,2 C 4,0 km/h (1 Bft)
17/12/2011 06:40 3,3 C 94 % 1009,4 hPa 0,0 mm 1,1 km/h (1 Bft) O 270 0 min 0 W/m 2,4 C 3,3 C 4,0 km/h (1 Bft)
17/12/2011 06:45 3,3 C 94 % 1009,5 hPa 0,0 mm 0,4 km/h (0 Bft) O 270 0 min 0 W/m 2,4 C 3,3 C 4,3 km/h (1 Bft)
17/12/2011 06:50 3,4 C 94 % 1009,6 hPa 0,0 mm 4,0 km/h (1 Bft) O 270 0 min 0 W/m 2,5 C 3,4 C 12,6 km/h (3 Bft)
17/12/2011 06:55 3,4 C 94 % 1009,7 hPa 0,0 mm 1,1 km/h (1 Bft) NO 315 0 min 0 W/m 2,5 C 3,4 C 4,3 km/h (1 Bft)
17/12/2011 07:00 3,4 C 94 % 1009,7 hPa 0,0 mm 1,1 km/h (1 Bft) O 270 0 min 0 W/m 2,5 C 3,4 C 3,2 km/h (1 Bft)
17/12/2011 07:05 3,4 C 94 % 1009,9 hPa 0,0 mm 6,5 km/h (2 Bft) O-SO 247 0 min 0 W/m 2,5 C 1,7 C 14,0 km/h (3 Bft)
17/12/2011 07:10 3,4 C 94 % 1010,0 hPa 0,0 mm 3,2 km/h (1 Bft) O-SO 247 0 min 0 W/m 2,5 C 3,4 C 3,2 km/h (1 Bft)
17/12/2011 07:15 3,3 C 94 % 1010,0 hPa 0,0 mm 6,1 km/h (2 Bft) SO 225 0 min 0 W/m 2,4 C 1,7 C 13,3 km/h (3 Bft)
17/12/2011 07:20 3,3 C 94 % 1010,0 hPa 0,0 mm 3,2 km/h (1 Bft) O 270 0 min 0 W/m 2,4 C 3,3 C 4,0 km/h (1 Bft)
17/12/2011 07:25 3,3 C 94 % 1010,1 hPa 0,0 mm 6,1 km/h (2 Bft) O 270 0 min 0 W/m 2,4 C 1,7 C 14,4 km/h (3 Bft)
17/12/2011 07:30 3,3 C 94 % 1010,1 hPa 0,0 mm 1,8 km/h (1 Bft) O-SO 247 0 min 0 W/m 2,4 C 3,3 C 3,6 km/h (1 Bft)
17/12/2011 07:35 3,3 C 94 % 1010,2 hPa 0,0 mm 5,4 km/h (2 Bft) O-SO 247 0 min 0 W/m 2,4 C 2,0 C 11,5 km/h (2 Bft)
17/12/2011 07:40 3,2 C 94 % 1010,2 hPa 0,0 mm 5,0 km/h (1 Bft) O 270 0 min 0 W/m 2,3 C 2,0 C 11,5 km/h (2 Bft)
17/12/2011 07:45 3,1 C 94 % 1010,3 hPa 0,0 mm 1,8 km/h (1 Bft) O-SO 247 0 min 0 W/m 2,2 C 3,1 C 7,6 km/h (2 Bft)
17/12/2011 07:50 3,1 C 94 % 1010,3 hPa 0,0 mm 3,6 km/h (1 Bft) NO 315 0 min 0 W/m 2,2 C 3,1 C 10,4 km/h (2 Bft)
17/12/2011 07:55 2,9 C 94 % 1010,3 hPa 0,0 mm 3,6 km/h (1 Bft) SO 225 0 min 0 W/m 2,0 C 2,9 C 3,6 km/h (1 Bft)
17/12/2011 08:00 2,9 C 94 % 1010,4 hPa 0,0 mm 2,5 km/h (1 Bft) O 270 0 min 0 W/m 2,0 C 2,9 C 12,6 km/h (3 Bft)
17/12/2011 08:05 2,9 C 94 % 1010,3 hPa 0,0 mm 1,1 km/h (1 Bft) O-NO 292 0 min 0 W/m 2,0 C 2,9 C 1,1 km/h (1 Bft)
17/12/2011 08:10 2,9 C 94 % 1010,4 hPa 0,0 mm 4,7 km/h (1 Bft) O 270 0 min 0 W/m 2,0 C 1,8 C 4,7 km/h (1 Bft)
17/12/2011 08:15 2,9 C 94 % 1010,5 hPa 0,0 mm 7,2 km/h (2 Bft) O 270 0 min 0 W/m 2,0 C 0,9 C 17,6 km/h (3 Bft)
17/12/2011 08:20 2,9 C 94 % 1010,7 hPa 0,0 mm 9,0 km/h (2 Bft) O 270 0 min 0 W/m 2,0 C 0,4 C 17,3 km/h (3 Bft)
17/12/2011 08:25 3,0 C 94 % 1010,8 hPa 0,0 mm 0,7 km/h (0 Bft) O 270 0 min 0 W/m 2,1 C 3,0 C 3,2 km/h (1 Bft)
17/12/2011 08:30 3,0 C 94 % 1010,9 hPa 0,0 mm 3,2 km/h (1 Bft) O-SO 247 0 min 0 W/m 2,1 C 3,0 C 12,6 km/h (3 Bft)
17/12/2011 08:35 3,1 C 94 % 1010,9 hPa 0,0 mm 5,0 km/h (1 Bft) O-SO 247 0 min 0 W/m 2,2 C 1,9 C 10,1 km/h (2 Bft)
17/12/2011 08:40 3,1 C 94 % 1011,0 hPa 0,0 mm 2,2 km/h (1 Bft) O-SO 247 0 min 0 W/m 2,2 C 3,1 C 2,9 km/h (1 Bft)
17/12/2011 08:45 3,1 C 94 % 1011,1 hPa 0,0 mm 4,0 km/h (1 Bft) O 270 0 min 0 W/m 2,2 C 3,1 C 13,7 km/h (3 Bft)
17/12/2011 08:50 3,1 C 94 % 1011,2 hPa 0,0 mm 2,2 km/h (1 Bft) O 270 0 min 0 W/m 2,2 C 3,1 C 5,8 km/h (2 Bft)
17/12/2011 08:55 3,1 C 94 % 1011,3 hPa 0,0 mm 2,5 km/h (1 Bft) O-SO 247 0 min 0 W/m 2,2 C 3,1 C 8,3 km/h (2 Bft)
17/12/2011 09:00 3,2 C 94 % 1011,4 hPa 0,0 mm 0,0 km/h (0 Bft) O 270 0 min 0 W/m 2,3 C 3,2 C 0,0 km/h (0 Bft)
17/12/2011 09:05 3,2 C 94 % 1011,5 hPa 0,0 mm 0,0 km/h (0 Bft) O 270 0 min 0 W/m 2,3 C 3,2 C 0,0 km/h (0 Bft)
17/12/2011 09:10 3,2 C 94 % 1011,7 hPa 0,0 mm 1,1 km/h (1 Bft) O 270 0 min 0 W/m 2,3 C 3,2 C 8,6 km/h (2 Bft)
17/12/2011 09:15 3,2 C 94 % 1011,8 hPa 0,0 mm 4,7 km/h (1 Bft) O-SO 247 0 min 0 W/m 2,3 C 2,2 C 9,7 km/h (2 Bft)
17/12/2011 09:20 3,3 C 94 % 1012,0 hPa 0,0 mm 4,0 km/h (1 Bft) O-SO 247 0 min 0 W/m 2,4 C 3,3 C 7,6 km/h (2 Bft)
17/12/2011 09:25 3,4 C 94 % 1012,1 hPa 0,0 mm 2,9 km/h (1 Bft) O-SO 247 0 min 0 W/m 2,5 C 3,4 C 8,3 km/h (2 Bft)
17/12/2011 09:30 3,7 C 95 % 1012,2 hPa 0,0 mm 0,7 km/h (0 Bft) S-SO 202 0 min 0 W/m 3,0 C 3,7 C 4,3 km/h (1 Bft)
17/12/2011 09:35 3,9 C 95 % 1012,4 hPa 0,0 mm 1,1 km/h (1 Bft) O 270 0 min 0 W/m 3,2 C 3,9 C 4,3 km/h (1 Bft)
17/12/2011 09:40 4,2 C 94 % 1012,5 hPa 0,0 mm 2,2 km/h (1 Bft) NO 315 0 min 0 W/m 3,3 C 4,2 C 10,1 km/h (2 Bft)
17/12/2011 09:45 4,4 C 94 % 1012,5 hPa 0,0 mm 2,2 km/h (1 Bft) O 270 0 min 0 W/m 3,5 C 4,4 C 2,2 km/h (1 Bft)
17/12/2011 09:50 4,6 C 94 % 1012,6 hPa 0,0 mm 6,5 km/h (2 Bft) O 270 0 min 0 W/m 3,7 C 3,1 C 11,5 km/h (2 Bft)
17/12/2011 09:55 4,8 C 93 % 1012,7 hPa 0,0 mm 0,7 km/h (0 Bft) O-SO 247 0 min 0 W/m 3,8 C 4,8 C 4,0 km/h (1 Bft)
17/12/2011 10:00 5,1 C 93 % 1012,8 hPa 0,0 mm 0,4 km/h (0 Bft) O-SO 247 0 min 0 W/m 4,1 C 5,1 C 4,0 km/h (1 Bft)
17/12/2011 10:05 5,2 C 92 % 1012,9 hPa 0,0 mm 5,8 km/h (2 Bft) O-SO 247 0 min 0 W/m 4,0 C 4,0 C 11,5 km/h (2 Bft)
17/12/2011 10:10 5,3 C 91 % 1013,0 hPa 0,0 mm 1,1 km/h (1 Bft) O 270 0 min 0 W/m 4,0 C 5,3 C 3,6 km/h (1 Bft)
17/12/2011 10:15 5,4 C 91 % 1013,1 hPa 0,0 mm 1,8 km/h (1 Bft) O-SO 247 0 min 0 W/m 4,1 C 5,4 C 8,3 km/h (2 Bft)
17/12/2011 10:20 5,5 C 90 % 1013,1 hPa 0,0 mm 1,4 km/h (1 Bft) O 270 0 min 0 W/m 4,0 C 5,5 C 6,8 km/h (2 Bft)
17/12/2011 10:25 5,8 C 90 % 1013,1 hPa 0,0 mm 1,8 km/h (1 Bft) O 270 0 min 0 W/m 4,3 C 5,8 C 6,8 km/h (2 Bft)
17/12/2011 10:30 6,1 C 90 % 1013,2 hPa 0,0 mm 0,0 km/h (0 Bft) O-SO 247 0 min 0 W/m 4,6 C 6,1 C 0,0 km/h (0 Bft)
17/12/2011 10:35 6,4 C 89 % 1013,5 hPa 0,0 mm 3,2 km/h (1 Bft) O 270 0 min 0 W/m 4,7 C 6,4 C 4,3 km/h (1 Bft)
17/12/2011 10:40 6,6 C 89 % 1013,4 hPa 0,0 mm 2,5 km/h (1 Bft) N-NO 337 0 min 0 W/m 4,9 C 6,6 C 2,5 km/h (1 Bft)
17/12/2011 10:45 6,8 C 88 % 1013,5 hPa 0,0 mm 2,9 km/h (1 Bft) O 270 0 min 0 W/m 5,0 C 6,8 C 4,3 km/h (1 Bft)
17/12/2011 10:50 6,9 C 87 % 1013,5 hPa 0,0 mm 4,0 km/h (1 Bft) O-NO 292 0 min 0 W/m 4,9 C 6,9 C 4,0 km/h (1 Bft)
17/12/2011 10:55 6,9 C 86 % 1013,5 hPa 0,0 mm 3,2 km/h (1 Bft) O-NO 292 0 min 0 W/m 4,7 C 6,9 C 4,3 km/h (1 Bft)
17/12/2011 11:00 6,9 C 87 % 1013,6 hPa 0,0 mm 9,4 km/h (2 Bft) O 270 0 min 0 W/m 4,9 C 5,1 C 9,4 km/h (2 Bft)
17/12/2011 11:05 7,1 C 85 % 1013,6 hPa 0,0 mm 5,0 km/h (1 Bft) O-NO 292 0 min 0 W/m 4,8 C 6,5 C 7,6 km/h (2 Bft)
17/12/2011 11:10 7,3 C 85 % 1013,7 hPa 0,0 mm 7,9 km/h (2 Bft) O 270 0 min 0 W/m 4,9 C 5,9 C 17,3 km/h (3 Bft)
17/12/2011 11:15 7,5 C 85 % 1013,8 hPa 0,0 mm 1,1 km/h (1 Bft) S-SO 202 0 min 0 W/m 5,1 C 7,5 C 4,3 km/h (1 Bft)
17/12/2011 11:20 7,8 C 84 % 1013,8 hPa 0,0 mm 5,8 km/h (2 Bft) O 270 0 min 0 W/m 5,3 C 7,0 C 13,3 km/h (3 Bft)
17/12/2011 11:25 7,9 C 84 % 1013,8 hPa 0,0 mm 4,3 km/h (1 Bft) NO 315 0 min 0 W/m 5,4 C 7,9 C 12,2 km/h (2 Bft)
17/12/2011 11:30 8,1 C 82 % 1013,9 hPa 0,0 mm 3,6 km/h (1 Bft) NE 45 0 min 0 W/m 5,2 C 8,1 C 4,3 km/h (1 Bft)
17/12/2011 11:35 8,0 C 82 % 1013,8 hPa 0,0 mm 7,9 km/h (2 Bft) NO 315 0 min 0 W/m 5,1 C 6,7 C 7,9 km/h (2 Bft)
17/12/2011 11:40 7,8 C 82 % 1013,9 hPa 0,0 mm 4,7 km/h (1 Bft) NO 315 0 min 0 W/m 4,9 C 7,4 C 8,6 km/h (2 Bft)
17/12/2011 11:45 7,4 C 82 % 1013,8 hPa 0,0 mm 6,1 km/h (2 Bft) O 270 0 min 0 W/m 4,5 C 6,5 C 6,5 km/h (2 Bft)
17/12/2011 11:50 7,4 C 82 % 1013,8 hPa 0,0 mm 2,5 km/h (1 Bft) O 270 0 min 0 W/m 4,5 C 7,4 C 4,0 km/h (1 Bft)
17/12/2011 11:55 7,7 C 82 % 1013,9 hPa 0,0 mm 5,0 km/h (1 Bft) NO 315 0 min 0 W/m 4,8 C 7,1 C 8,3 km/h (2 Bft)
17/12/2011 12:00 7,8 C 82 % 1013,9 hPa 0,0 mm 3,6 km/h (1 Bft) NO 315 0 min 0 W/m 4,9 C 7,8 C 16,9 km/h (3 Bft)
17/12/2011 12:05 8,0 C 80 % 1013,9 hPa 0,0 mm 4,3 km/h (1 Bft) O-SO 247 0 min 0 W/m 4,8 C 8,0 C 9,4 km/h (2 Bft)
17/12/2011 12:10 7,9 C 80 % 1013,9 hPa 0,0 mm 6,8 km/h (2 Bft) NO 315 0 min 0 W/m 4,7 C 6,8 C 16,2 km/h (3 Bft)
17/12/2011 12:15 7,9 C 79 % 1013,9 hPa 0,0 mm 11,9 km/h (2 Bft) O 270 0 min 0 W/m 4,5 C 5,8 C 23,0 km/h (4 Bft)
17/12/2011 12:20 8,1 C 79 % 1014,0 hPa 0,0 mm 2,2 km/h (1 Bft) O-NO 292 0 min 0 W/m 4,7 C 8,1 C 9,0 km/h (2 Bft)
17/12/2011 12:25 8,3 C 79 % 1014,0 hPa 0,0 mm 4,0 km/h (1 Bft) NO 315 0 min 0 W/m 4,9 C 8,3 C 15,5 km/h (3 Bft)
17/12/2011 12:30 8,6 C 79 % 1014,0 hPa 0,0 mm 1,8 km/h (1 Bft) O 270 0 min 0 W/m 5,2 C 8,6 C 2,9 km/h (1 Bft)
17/12/2011 12:35 8,5 C 77 % 1014,1 hPa 0,0 mm 5,0 km/h (1 Bft) O-NO 292 0 min 0 W/m 4,7 C 8,1 C 9,0 km/h (2 Bft)
17/12/2011 12:40 8,3 C 77 % 1014,0 hPa 0,0 mm 4,7 km/h (1 Bft) O-SO 247 0 min 0 W/m 4,5 C 7,9 C 12,2 km/h (2 Bft)
17/12/2011 12:45 8,0 C 78 % 1014,1 hPa 0,0 mm 1,4 km/h (1 Bft) E-SE 112 0 min 0 W/m 4,4 C 8,0 C 6,5 km/h (2 Bft)
17/12/2011 12:50 7,9 C 79 % 1013,9 hPa 0,0 mm 0,4 km/h (0 Bft) N-NO 337 0 min 0 W/m 4,5 C 7,9 C 0,4 km/h (0 Bft)
17/12/2011 12:55 8,1 C 80 % 1014,0 hPa 0,0 mm 3,2 km/h (1 Bft) O-NO 292 0 min 0 W/m 4,9 C 8,1 C 4,3 km/h (1 Bft)
17/12/2011 13:00 8,1 C 78 % 1014,1 hPa 0,0 mm 3,2 km/h (1 Bft) NO 315 0 min 0 W/m 4,5 C 8,1 C 8,3 km/h (2 Bft)
17/12/2011 13:05 7,8 C 77 % 1014,1 hPa 0,0 mm 0,0 km/h (0 Bft) O 270 0 min 0 W/m 4,0 C 7,8 C 1,8 km/h (1 Bft)
17/12/2011 13:10 7,7 C 78 % 1014,0 hPa 0,0 mm 14,0 km/h (3 Bft) NO 315 0 min 0 W/m 4,1 C 5,2 C 18,7 km/h (3 Bft)
17/12/2011 13:15 7,5 C 77 % 1014,0 hPa 0,0 mm 6,1 km/h (2 Bft) NO 315 0 min 0 W/m 3,7 C 6,6 C 10,4 km/h (2 Bft)
17/12/2011 13:20 7,3 C 78 % 1013,8 hPa 0,0 mm 2,9 km/h (1 Bft) O-NO 292 0 min 0 W/m 3,7 C 7,3 C 8,3 km/h (2 Bft)
17/12/2011 13:25 7,2 C 78 % 1013,9 hPa 0,0 mm 6,1 km/h (2 Bft) N-NO 337 0 min 0 W/m 3,6 C 6,2 C 8,6 km/h (2 Bft)
17/12/2011 13:30 7,1 C 78 % 1013,9 hPa 0,0 mm 3,6 km/h (1 Bft) NO 315 0 min 0 W/m 3,5 C 7,1 C 6,5 km/h (2 Bft)
17/12/2011 13:35 6,9 C 79 % 1014,0 hPa 0,0 mm 6,8 km/h (2 Bft) O-NO 292 0 min 0 W/m 3,5 C 5,7 C 10,4 km/h (2 Bft)
17/12/2011 13:40 7,3 C 80 % 1014,1 hPa 0,0 mm 0,0 km/h (0 Bft) N-NO 337 0 min 0 W/m 4,1 C 7,3 C 2,9 km/h (1 Bft)
17/12/2011 13:45 7,5 C 79 % 1014,1 hPa 0,0 mm 5,0 km/h (1 Bft) O 270 0 min 0 W/m 4,1 C 6,9 C 8,6 km/h (2 Bft)
17/12/2011 13:50 7,6 C 78 % 1014,0 hPa 0,0 mm 6,8 km/h (2 Bft) O-NO 292 0 min 0 W/m 4,0 C 6,5 C 11,5 km/h (2 Bft)
17/12/2011 13:55 7,6 C 77 % 1014,0 hPa 0,0 mm 6,1 km/h (2 Bft) NO 315 0 min 0 W/m 3,8 C 6,7 C 13,0 km/h (3 Bft)
17/12/2011 14:00 7,7 C 77 % 1014,0 hPa 0,0 mm 3,6 km/h (1 Bft) NO 315 0 min 0 W/m 3,9 C 7,7 C 11,2 km/h (2 Bft)
17/12/2011 14:05 7,8 C 77 % 1014,0 hPa 0,0 mm 1,1 km/h (1 Bft) O 270 0 min 0 W/m 4,0 C 7,8 C 1,1 km/h (1 Bft)
17/12/2011 14:10 7,8 C 77 % 1014,0 hPa 0,0 mm 0,0 km/h (0 Bft) O-NO 292 0 min 0 W/m 4,0 C 7,8 C 0,0 km/h (0 Bft)
17/12/2011 14:15 7,6 C 77 % 1013,8 hPa 0,0 mm 0,4 km/h (0 Bft) O 270 0 min 0 W/m 3,8 C 7,6 C 6,1 km/h (2 Bft)
17/12/2011 14:20 7,4 C 77 % 1013,7 hPa 0,0 mm 1,1 km/h (1 Bft) NO 315 0 min 0 W/m 3,6 C 7,4 C 3,2 km/h (1 Bft)
17/12/2011 14:25 7,2 C 78 % 1013,8 hPa 0,0 mm 4,7 km/h (1 Bft) O-NO 292 0 min 0 W/m 3,6 C 6,7 C 12,2 km/h (2 Bft)
17/12/2011 14:30 6,9 C 78 % 1013,7 hPa 0,0 mm 1,4 km/h (1 Bft) NO 315 0 min 0 W/m 3,3 C 6,9 C 3,2 km/h (1 Bft)
17/12/2011 14:35 6,8 C 79 % 1013,5 hPa 0,0 mm 4,3 km/h (1 Bft) O-SO 247 0 min 0 W/m 3,4 C 6,8 C 7,9 km/h (2 Bft)
17/12/2011 14:40 6,7 C 79 % 1013,4 hPa 0,0 mm 0,0 km/h (0 Bft) O-SO 247 0 min 0 W/m 3,3 C 6,7 C 0,0 km/h (0 Bft)
17/12/2011 14:45 6,6 C 80 % 1013,4 hPa 0,0 mm 0,0 km/h (0 Bft) O-NO 292 0 min 0 W/m 3,4 C 6,6 C 0,0 km/h (0 Bft)
17/12/2011 14:50 6,6 C 81 % 1013,4 hPa 0,0 mm 0,7 km/h (0 Bft) O-SO 247 0 min 0 W/m 3,6 C 6,6 C 0,7 km/h (0 Bft)
17/12/2011 14:55 6,5 C 81 % 1013,4 hPa 0,0 mm 0,7 km/h (0 Bft) O 270 0 min 0 W/m 3,5 C 6,5 C 4,0 km/h (1 Bft)
17/12/2011 15:00 6,4 C 81 % 1013,4 hPa 0,0 mm 2,9 km/h (1 Bft) O 270 0 min 0 W/m 3,4 C 6,4 C 2,9 km/h (1 Bft)
17/12/2011 15:05 6,4 C 80 % 1013,5 hPa 0,0 mm 2,2 km/h (1 Bft) O-NO 292 0 min 0 W/m 3,2 C 6,4 C 4,3 km/h (1 Bft)
17/12/2011 15:10 6,5 C 80 % 1013,4 hPa 0,0 mm 0,0 km/h (0 Bft) S 180 0 min 0 W/m 3,3 C 6,5 C 3,6 km/h (1 Bft)
17/12/2011 15:15 6,5 C 80 % 1013,4 hPa 0,0 mm 1,4 km/h (1 Bft) O 270 0 min 0 W/m 3,3 C 6,5 C 4,7 km/h (1 Bft)
17/12/2011 15:20 6,5 C 81 % 1013,4 hPa 0,0 mm 0,0 km/h (0 Bft) O-SO 247 0 min 0 W/m 3,5 C 6,5 C 0,0 km/h (0 Bft)
17/12/2011 15:25 6,5 C 80 % 1013,3 hPa 0,0 mm 0,0 km/h (0 Bft) O-SO 247 0 min 0 W/m 3,3 C 6,5 C 0,0 km/h (0 Bft)
17/12/2011 15:30 6,5 C 80 % 1013,3 hPa 0,0 mm 0,7 km/h (0 Bft) O 270 0 min 0 W/m 3,3 C 6,5 C 3,6 km/h (1 Bft)
17/12/2011 15:35 6,5 C 81 % 1013,4 hPa 0,0 mm 0,0 km/h (0 Bft) O-SO 247 0 min 0 W/m 3,5 C 6,5 C 0,0 km/h (0 Bft)
17/12/2011 15:40 6,5 C 81 % 1013,4 hPa 0,0 mm 0,7 km/h (0 Bft) O-SO 247 0 min 0 W/m 3,5 C 6,5 C 4,3 km/h (1 Bft)
17/12/2011 15:45 6,4 C 81 % 1013,4 hPa 0,0 mm 2,2 km/h (1 Bft) O-SO 247 0 min 0 W/m 3,4 C 6,4 C 2,2 km/h (1 Bft)
17/12/2011 15:50 6,4 C 81 % 1013,5 hPa 0,0 mm 0,0 km/h (0 Bft) SO 225 0 min 0 W/m 3,4 C 6,4 C 0,0 km/h (0 Bft)
17/12/2011 15:55 6,3 C 82 % 1013,5 hPa 0,0 mm 2,9 km/h (1 Bft) SO 225 0 min 0 W/m 3,5 C 6,3 C 8,6 km/h (2 Bft)
17/12/2011 16:00 6,3 C 82 % 1013,5 hPa 0,0 mm 0,7 km/h (0 Bft) O 270 0 min 0 W/m 3,5 C 6,3 C 0,7 km/h (0 Bft)
17/12/2011 16:05 6,3 C 82 % 1013,5 hPa 0,0 mm 2,9 km/h (1 Bft) O 270 0 min 0 W/m 3,5 C 6,3 C 4,3 km/h (1 Bft)
17/12/2011 16:10 6,3 C 82 % 1013,5 hPa 0,0 mm 0,0 km/h (0 Bft) O 270 0 min 0 W/m 3,5 C 6,3 C 0,0 km/h (0 Bft)
17/12/2011 16:15 6,2 C 82 % 1013,5 hPa 0,0 mm 0,4 km/h (0 Bft) O 270 0 min 0 W/m 3,4 C 6,2 C 1,4 km/h (1 Bft)
17/12/2011 16:20 6,1 C 83 % 1013,5 hPa 0,0 mm 0,7 km/h (0 Bft) SO 225 0 min 0 W/m 3,4 C 6,1 C 4,0 km/h (1 Bft)
17/12/2011 16:25 6,1 C 83 % 1013,5 hPa 0,0 mm 0,7 km/h (0 Bft) O-NO 292 0 min 0 W/m 3,4 C 6,1 C 8,6 km/h (2 Bft)
17/12/2011 16:30 6,1 C 83 % 1013,4 hPa 0,1 mm 0,0 km/h (0 Bft) O-SO 247 0 min 0 W/m 3,4 C 6,1 C 0,0 km/h (0 Bft)
17/12/2011 16:35 6,1 C 84 % 1013,4 hPa 0,0 mm 0,0 km/h (0 Bft) O 270 0 min 0 W/m 3,6 C 6,1 C 2,9 km/h (1 Bft)
17/12/2011 16:40 6,0 C 84 % 1013,3 hPa 0,0 mm 7,2 km/h (2 Bft) S-SO 202 0 min 0 W/m 3,5 C 4,5 C 14,4 km/h (3 Bft)
17/12/2011 16:45 5,9 C 84 % 1013,4 hPa 0,0 mm 1,4 km/h (1 Bft) SO 225 0 min 0 W/m 3,4 C 5,9 C 1,4 km/h (1 Bft)
17/12/2011 16:50 5,8 C 84 % 1013,4 hPa 0,0 mm 2,5 km/h (1 Bft) O 270 0 min 0 W/m 3,3 C 5,8 C 10,4 km/h (2 Bft)
17/12/2011 16:55 5,6 C 84 % 1013,4 hPa 0,0 mm 0,4 km/h (0 Bft) O-SO 247 0 min 0 W/m 3,1 C 5,6 C 3,6 km/h (1 Bft)
17/12/2011 17:00 5,4 C 85 % 1013,4 hPa 0,0 mm 1,1 km/h (1 Bft) O-NO 292 0 min 0 W/m 3,1 C 5,4 C 4,3 km/h (1 Bft)
17/12/2011 17:05 5,3 C 85 % 1013,5 hPa 0,0 mm 1,8 km/h (1 Bft) S 180 0 min 0 W/m 3,0 C 5,3 C 3,2 km/h (1 Bft)
17/12/2011 17:10 5,1 C 85 % 1013,5 hPa 0,0 mm 0,4 km/h (0 Bft) O-SO 247 0 min 0 W/m 2,8 C 5,1 C 4,3 km/h (1 Bft)
17/12/2011 17:15 4,9 C 86 % 1013,5 hPa 0,0 mm 0,4 km/h (0 Bft) O 270 0 min 0 W/m 2,8 C 4,9 C 3,2 km/h (1 Bft)
17/12/2011 17:20 4,8 C 86 % 1013,5 hPa 0,0 mm 1,4 km/h (1 Bft) O-NO 292 0 min 0 W/m 2,7 C 4,8 C 3,6 km/h (1 Bft)
17/12/2011 17:25 4,6 C 86 % 1013,6 hPa 0,0 mm 4,0 km/h (1 Bft) O-SO 247 0 min 0 W/m 2,5 C 4,6 C 10,4 km/h (2 Bft)
17/12/2011 17:30 4,4 C 87 % 1013,6 hPa 0,0 mm 1,8 km/h (1 Bft) O-SO 247 0 min 0 W/m 2,4 C 4,4 C 4,0 km/h (1 Bft)
17/12/2011 17:35 4,3 C 87 % 1013,6 hPa 0,0 mm 1,4 km/h (1 Bft) O 270 0 min 0 W/m 2,3 C 4,3 C 3,6 km/h (1 Bft)
17/12/2011 17:40 4,2 C 88 % 1013,7 hPa 0,0 mm 0,4 km/h (0 Bft) SO 225 0 min 0 W/m 2,4 C 4,2 C 3,2 km/h (1 Bft)
17/12/2011 17:45 4,1 C 88 % 1013,7 hPa 0,0 mm 2,5 km/h (1 Bft) O 270 0 min 0 W/m 2,3 C 4,1 C 3,6 km/h (1 Bft)
17/12/2011 17:50 3,9 C 88 % 1013,9 hPa 0,0 mm 2,2 km/h (1 Bft) O 270 0 min 0 W/m 2,1 C 3,9 C 9,4 km/h (2 Bft)
17/12/2011 17:55 3,8 C 88 % 1014,0 hPa 0,0 mm 0,0 km/h (0 Bft) O-SO 247 0 min 0 W/m 2,0 C 3,8 C 3,6 km/h (1 Bft)
17/12/2011 18:00 3,8 C 88 % 1014,0 hPa 0,0 mm 2,2 km/h (1 Bft) O-SO 247 0 min 0 W/m 2,0 C 3,8 C 2,2 km/h (1 Bft)
17/12/2011 18:05 3,7 C 89 % 1014,0 hPa 0,0 mm 0,0 km/h (0 Bft) SO 225 0 min 0 W/m 2,1 C 3,7 C 0,0 km/h (0 Bft)
17/12/2011 18:10 3,6 C 88 % 1014,0 hPa 0,0 mm 0,0 km/h (0 Bft) O-SO 247 0 min 0 W/m 1,8 C 3,6 C 0,0 km/h (0 Bft)
17/12/2011 18:15 3,4 C 88 % 1014,0 hPa 0,0 mm 0,0 km/h (0 Bft) O-SO 247 0 min 0 W/m 1,6 C 3,4 C 0,0 km/h (0 Bft)
17/12/2011 18:20 3,3 C 88 % 1014,0 hPa 0,0 mm 0,0 km/h (0 Bft) SO 225 0 min 0 W/m 1,5 C 3,3 C 0,0 km/h (0 Bft)
17/12/2011 18:25 3,2 C 89 % 1014,1 hPa 0,0 mm 0,0 km/h (0 Bft) O-SO 247 0 min 0 W/m 1,6 C 3,2 C 0,0 km/h (0 Bft)
17/12/2011 18:30 3,0 C 89 % 1014,0 hPa 0,0 mm 0,0 km/h (0 Bft) O-SO 247 0 min 0 W/m 1,4 C 3,0 C 0,0 km/h (0 Bft)
17/12/2011 18:35 2,9 C 89 % 1014,1 hPa 0,0 mm 0,0 km/h (0 Bft) SO 225 0 min 0 W/m 1,3 C 2,9 C 0,0 km/h (0 Bft)
17/12/2011 18:40 2,8 C 89 % 1014,0 hPa 0,0 mm 0,0 km/h (0 Bft) SO 225 0 min 0 W/m 1,2 C 2,8 C 0,0 km/h (0 Bft)
17/12/2011 18:45 2,6 C 90 % 1014,0 hPa 0,0 mm 0,4 km/h (0 Bft) O-SO 247 0 min 0 W/m 1,1 C 2,6 C 0,4 km/h (0 Bft)
17/12/2011 18:50 2,6 C 90 % 1014,0 hPa 0,0 mm 0,0 km/h (0 Bft) O-SO 247 0 min 0 W/m 1,1 C 2,6 C 0,0 km/h (0 Bft)
17/12/2011 18:55 2,5 C 91 % 1014,0 hPa 0,0 mm 0,0 km/h (0 Bft) O-SO 247 0 min 0 W/m 1,2 C 2,5 C 0,0 km/h (0 Bft)
17/12/2011 19:00 2,4 C 91 % 1014,1 hPa 0,0 mm 0,0 km/h (0 Bft) O-SO 247 0 min 0 W/m 1,1 C 2,4 C 0,0 km/h (0 Bft)
17/12/2011 19:05 2,4 C 90 % 1014,1 hPa 0,0 mm 0,0 km/h (0 Bft) O 270 0 min 0 W/m 0,9 C 2,4 C 0,0 km/h (0 Bft)
17/12/2011 19:10 2,3 C 91 % 1014,2 hPa 0,0 mm 0,0 km/h (0 Bft) O 270 0 min 0 W/m 1,0 C 2,3 C 0,0 km/h (0 Bft)
17/12/2011 19:15 2,3 C 91 % 1014,2 hPa 0,0 mm 0,0 km/h (0 Bft) SO 225 0 min 0 W/m 1,0 C 2,3 C 0,0 km/h (0 Bft)
17/12/2011 19:20 2,2 C 91 % 1014,2 hPa 0,0 mm 0,7 km/h (0 Bft) SO 225 0 min 0 W/m 0,9 C 2,2 C 4,0 km/h (1 Bft)
17/12/2011 19:25 2,4 C 92 % 1014,2 hPa 0,0 mm 0,4 km/h (0 Bft) O-SO 247 0 min 0 W/m 1,2 C 2,4 C 2,9 km/h (1 Bft)
17/12/2011 19:30 2,6 C 92 % 1014,1 hPa 0,0 mm 1,1 km/h (1 Bft) SO 225 0 min 0 W/m 1,4 C 2,6 C 4,3 km/h (1 Bft)
17/12/2011 19:35 2,8 C 92 % 1014,3 hPa 0,0 mm 0,0 km/h (0 Bft) SO 225 0 min 0 W/m 1,6 C 2,8 C 0,0 km/h (0 Bft)
17/12/2011 19:40 2,9 C 92 % 1014,3 hPa 0,0 mm 0,0 km/h (0 Bft) SO 225 0 min 0 W/m 1,7 C 2,9 C 0,0 km/h (0 Bft)
17/12/2011 19:45 3,1 C 93 % 1014,3 hPa 0,1 mm 0,7 km/h (0 Bft) O 270 0 min 0 W/m 2,1 C 3,1 C 3,2 km/h (1 Bft)
17/12/2011 19:50 3,1 C 93 % 1014,4 hPa 0,1 mm 7,2 km/h (2 Bft) O-NO 292 0 min 0 W/m 2,1 C 1,1 C 14,0 km/h (3 Bft)
17/12/2011 19:55 3,2 C 93 % 1014,4 hPa 0,1 mm 6,5 km/h (2 Bft) SO 225 0 min 0 W/m 2,2 C 1,5 C 13,3 km/h (3 Bft)
17/12/2011 20:00 3,1 C 93 % 1014,4 hPa 0,0 mm 2,5 km/h (1 Bft) O-SO 247 0 min 0 W/m 2,1 C 3,1 C 6,5 km/h (2 Bft)
17/12/2011 20:05 3,1 C 93 % 1014,5 hPa 0,0 mm 0,0 km/h (0 Bft) NO 315 0 min 0 W/m 2,1 C 3,1 C 0,0 km/h (0 Bft)
17/12/2011 20:10 2,9 C 92 % 1014,5 hPa 0,0 mm 0,7 km/h (0 Bft) S-SO 202 0 min 0 W/m 1,7 C 2,9 C 4,3 km/h (1 Bft)
17/12/2011 20:15 2,9 C 92 % 1014,4 hPa 0,0 mm 0,0 km/h (0 Bft) O-SO 247 0 min 0 W/m 1,7 C 2,9 C 0,0 km/h (0 Bft)
17/12/2011 20:20 2,8 C 92 % 1014,5 hPa 0,0 mm 0,0 km/h (0 Bft) O-SO 247 0 min 0 W/m 1,6 C 2,8 C 0,0 km/h (0 Bft)
17/12/2011 20:25 2,6 C 92 % 1014,5 hPa 0,0 mm 0,0 km/h (0 Bft) O-NO 292 0 min 0 W/m 1,4 C 2,6 C 0,0 km/h (0 Bft)
17/12/2011 20:30 2,5 C 92 % 1014,6 hPa 0,0 mm 0,0 km/h (0 Bft) O-SO 247 0 min 0 W/m 1,3 C 2,5 C 0,0 km/h (0 Bft)
17/12/2011 20:35 2,3 C 92 % 1014,6 hPa 0,0 mm 0,0 km/h (0 Bft) O-SO 247 0 min 0 W/m 1,1 C 2,3 C 0,0 km/h (0 Bft)
17/12/2011 20:40 2,3 C 92 % 1014,7 hPa 0,0 mm 0,0 km/h (0 Bft) NO 315 0 min 0 W/m 1,1 C 2,3 C 0,0 km/h (0 Bft)
17/12/2011 20:45 2,2 C 92 % 1014,7 hPa 0,0 mm 0,0 km/h (0 Bft) NO 315 0 min 0 W/m 1,0 C 2,2 C 0,0 km/h (0 Bft)
17/12/2011 20:50 2,1 C 92 % 1014,7 hPa 0,0 mm 0,0 km/h (0 Bft) O-SO 247 0 min 0 W/m 0,9 C 2,1 C 0,0 km/h (0 Bft)
17/12/2011 20:55 2,0 C 92 % 1014,7 hPa 0,0 mm 0,0 km/h (0 Bft) O-SO 247 0 min 0 W/m 0,8 C 2,0 C 0,0 km/h (0 Bft)
17/12/2011 21:00 1,8 C 92 % 1014,8 hPa 0,0 mm 0,0 km/h (0 Bft) O-NO 292 0 min 0 W/m 0,6 C 1,8 C 0,0 km/h (0 Bft)
17/12/2011 21:05 1,7 C 92 % 1014,9 hPa 0,0 mm 0,0 km/h (0 Bft) O-NO 292 0 min 0 W/m 0,5 C 1,7 C 0,0 km/h (0 Bft)
17/12/2011 21:10 1,6 C 92 % 1014,9 hPa 0,0 mm 0,4 km/h (0 Bft) NO 315 0 min 0 W/m 0,4 C 1,6 C 0,4 km/h (0 Bft)
17/12/2011 21:15 1,4 C 92 % 1014,9 hPa 0,0 mm 0,0 km/h (0 Bft) O-NO 292 0 min 0 W/m 0,2 C 1,4 C 0,0 km/h (0 Bft)
17/12/2011 21:20 1,4 C 92 % 1014,9 hPa 0,0 mm 0,0 km/h (0 Bft) S-SO 202 0 min 0 W/m 0,2 C 1,4 C 3,2 km/h (1 Bft)
17/12/2011 21:25 1,4 C 92 % 1014,9 hPa 0,0 mm 0,0 km/h (0 Bft) SO 225 0 min 0 W/m 0,2 C 1,4 C 0,0 km/h (0 Bft)
17/12/2011 21:30 1,3 C 92 % 1014,7 hPa 0,0 mm 0,4 km/h (0 Bft) S-SO 202 0 min 0 W/m 0,1 C 1,3 C 0,4 km/h (0 Bft)
17/12/2011 21:35 1,3 C 92 % 1014,7 hPa 0,0 mm 0,0 km/h (0 Bft) SO 225 0 min 0 W/m 0,1 C 1,3 C 0,0 km/h (0 Bft)
17/12/2011 21:40 1,1 C 92 % 1014,8 hPa 0,0 mm 0,0 km/h (0 Bft) S-SO 202 0 min 0 W/m -0,1 C 1,1 C 0,0 km/h (0 Bft)
17/12/2011 21:45 1,1 C 92 % 1014,7 hPa 0,0 mm 0,7 km/h (0 Bft) S-SO 202 0 min 0 W/m -0,1 C 1,1 C 4,3 km/h (1 Bft)
17/12/2011 21:50 0,9 C 93 % 1014,8 hPa 0,0 mm 0,0 km/h (0 Bft) O-SO 247 0 min 0 W/m -0,1 C 0,9 C 0,0 km/h (0 Bft)
17/12/2011 21:55 0,9 C 93 % 1014,7 hPa 0,0 mm 0,0 km/h (0 Bft) SO 225 0 min 0 W/m -0,1 C 0,9 C 0,0 km/h (0 Bft)
17/12/2011 22:00 0,9 C 93 % 1014,6 hPa 0,0 mm 1,4 km/h (1 Bft) O-SO 247 0 min 0 W/m -0,1 C 0,9 C 6,8 km/h (2 Bft)
17/12/2011 22:05 1,0 C 93 % 1014,5 hPa 0,0 mm 0,4 km/h (0 Bft) SO 225 0 min 0 W/m -0,0 C 1,0 C 3,2 km/h (1 Bft)
17/12/2011 22:10 1,1 C 93 % 1014,6 hPa 0,0 mm 0,0 km/h (0 Bft) S-SO 202 0 min 0 W/m 0,1 C 1,1 C 0,0 km/h (0 Bft)
17/12/2011 22:15 1,1 C 93 % 1014,5 hPa 0,0 mm 0,0 km/h (0 Bft) SO 225 0 min 0 W/m 0,1 C 1,1 C 3,6 km/h (1 Bft)
17/12/2011 22:20 1,1 C 93 % 1014,6 hPa 0,0 mm 0,0 km/h (0 Bft) O-SO 247 0 min 0 W/m 0,1 C 1,1 C 0,0 km/h (0 Bft)
17/12/2011 22:25 1,1 C 93 % 1014,7 hPa 0,0 mm 0,0 km/h (0 Bft) O-SO 247 0 min 0 W/m 0,1 C 1,1 C 0,0 km/h (0 Bft)
17/12/2011 22:30 1,1 C 93 % 1014,6 hPa 0,1 mm 0,0 km/h (0 Bft) SO 225 0 min 0 W/m 0,1 C 1,1 C 0,0 km/h (0 Bft)
17/12/2011 22:35 1,0 C 93 % 1014,8 hPa 0,0 mm 0,0 km/h (0 Bft) SO 225 0 min 0 W/m -0,0 C 1,0 C 0,0 km/h (0 Bft)
17/12/2011 22:40 0,9 C 93 % 1014,8 hPa 0,0 mm 0,0 km/h (0 Bft) O-SO 247 0 min 0 W/m -0,1 C 0,9 C 0,0 km/h (0 Bft)
17/12/2011 22:45 0,9 C 93 % 1014,8 hPa 0,0 mm 0,0 km/h (0 Bft) O-NO 292 0 min 0 W/m -0,1 C 0,9 C 0,0 km/h (0 Bft)
17/12/2011 22:50 0,8 C 93 % 1014,8 hPa 0,0 mm 0,0 km/h (0 Bft) S-SO 202 0 min 0 W/m -0,2 C 0,8 C 0,0 km/h (0 Bft)
17/12/2011 22:55 0,8 C 94 % 1014,7 hPa 0,0 mm 0,0 km/h (0 Bft) S-SO 202 0 min 0 W/m -0,1 C 0,8 C 1,4 km/h (1 Bft)
_ Min-Heure 22:55 14:20 02:20 - 22:55 - - - - 22:50 01:10 22:50
Minimum _ 0,8 C 77 % 1007,3 hPa - 0,0 km/h (0 Bft) - - - - -0,2 C -0,1 C 0,0 km/h (0 Bft)
_ Max-Heure 12:30 09:35 21:25 22:30 13:10 - - 22:55 22:55 11:25 12:30 12:15
Maximum _ 8,6 C 95 % 1014,9 hPa 0,1 mm 14,0 km/h
NO (3 Bft)
- - 0 min 0 W/m 5,4 C 8,6 C 23,0 km/h
O (4 Bft)
Moyenne _ 3,9 C 90 % 1011,7 hPa #0,6 mm 2,3 km/h (1 Bft) O-SO - #0 min. 0 W/m 2,3 C 3,7 C 5,1 km/h (1 Bft)
Saint Bonnet de Bellac- Haute Vienne - France